Cloud_Cover
5 4 5 5 2 11 0 3 0 0 0 0 0 11 9 6 5 26 38 59 6 5 9 5 5 5 4 0 4 5 5 0 2 2 0 0 0 0 0 0 0 4 5 1 0 5 3 0 0
6 89 22 21 9 5 29 82 0 0 0 0 1 5 59 14 29 20 78 6 29 8 23 4 3 0 0 0 1 5 0 2 5 0 0 0 0 0 0 0 0 2 5 5 5 0 0 0 0
100 100 100 99 27 3 0 0 0 0 0 0 0 4 5 11 7 6 11 5 5 4 5 5 5 5 0 0 1 5 0 0 0 5 0 0 0 0 0 0 4 5 5 5 4 3 0 0 2
100 100 99 13 3 2 0 0 84 0 0 0 0 0 3 5 5 5 38 5 5 5 0 35 5 5 5 1 0 0 2 1 1 0 0 0 0 0 0 0 3 15 5 76 29 0 0 0 80
5 5 5 5 3 1 3 0 3 0 0 0 0 1 0 0 5 4 5 4 0 0 0 33 22 5 5 1 0 4 0 0 0 0 0 0 0 0 0 0 0 5 20 9 62 5 2 24 100
14 5 10 8 49 3 1 1 0 0 0 0 0 1 3 40 45 97 70 54 9 0 2 88 100 87 8 5 2 2 5 0 0 0 0 0 0 0 0 0 0 5 100 100 100 33 5 100 100
100 100 80 100 100 94 4 53 2 62 13 39 40 3 86 72 100 100 100 100 58 5 5 25 91 100 36 33 22 12 11 1 0 0 1 0 0 0 5 1 5 5 99 100 100 100 100 100 83
100 100 100 94 41 24 4 6 71 38 81 69 100 98 100 100 100 41 18 30 29 61 18 0 4 6 16 30 19 28 99 100 57 100 66 100 29 69 76 11 5 96 100 100 100 100 100 100 28
100 100 100 100 100 100 91 7 6 94 100 100 100 100 100 74 2 0 8 36 90 31 97 74 0 1 34 8 6 0 0 4 0 0 0 40 65 26 81 100 98 100 100 100 100 100 100 100 42
100 100 100 100 100 84 70 86 100 100 100 91 76 92 5 0 0 4 94 75 7 31 38 99 100 100 54 19 5 2 2 7 64 92 81 97 88 100 100 100 100 100 100 100 100 100 100 100 100
100 100 100 100 5 89 94 98 100 100 12 79 3 4 4 9 11 4 1 0 0 0 3 36 73 89 72 50 9 4 0 0 31 100 100 100 100 100 100 100 100 100 100 100 100 100 100 100 100
100 100 100 100 100 100 100 100 100 85 100 86 45 1 94 24 4 0 0 2 0 0 1 0 5 6 99 85 22 5 5 7 22 8 97 100 80 98 100 100 100 100 100 100 100 100 100 100 100
9 86 100 100 100 97 100 89 65 98 100 100 64 4 60 85 5 5 1 2 32 16 10 5 5 12 74 96 7 5 5 4 7 100 5 45 93 78 44 100 100 100 100 100 100 100 100 100 100
86 68 52 100 99 100 17 89 100 100 100 100 34 57 97 100 97 100 98 100 100 100 79 6 5 6 82 100 100 22 5 5 5 9 26 5 63 45 98 92 98 98 100 100 100 100 100 100 100
98 29 92 100 100 89 95 95 100 98 97 100 100 100 100 100 100 100 100 100 88 17 98 92 36 5 22 91 100 8 5 5 5 5 68 5 6 5 22 64 66 26 5 36 92 100 100 100 100
100 65 83 99 94 55 14 99 100 100 100 100 100 100 100 100 98 51 41 31 100 100 48 22 5 5 5 40 71 6 5 5 5 5 6 5 5 34 92 65 30 29 27 59 96 100 49 16 76
100 100 100 100 100 100 100 100 100 100 100 100 100 100 100 100 100 98 64 32 90 44 5 55 53 5 4 5 5 5 5 3 5 5 18 5 20 77 63 68 66 68 78 69 48 97 100 100 100
100 100 100 100 100 100 100 100 100 100 100 100 100 50 100 100 96 35 29 55 31 44 32 44 60 5 28 49 96 64 5 5 5 5 5 0 3 5 19 63 95 42 10 60 64 100 100 100 100
100 100 100 100 100 100 98 100 100 100 100 100 100 100 92 79 5 5 22 33 16 9 67 98 41 76 100 100 100 94 87 59 10 5 5 5 4 5 3 2 51 100 5 9 61 55 82 90 86
100 100 100 100 100 100 100 94 100 100 100 100 100 95 27 74 98 4 71 100 100 70 97 98 100 100 100 100 100 99 98 100 60 64 100 100 100 100 100 100 100 100 100 66 8 9 28 41 97
86 96 100 95 90 96 100 100 100 100 100 100 92 94 32 3 94 53 5 25 94 10 56 100 86 100 100 100 100 100 100 98 93 92 88 100 100 100 100 100 100 100 100 100 100 100 100 100 100
98 99 98 91 99 93 93 38 100 100 99 100 97 84 13 10 12 100 79 5 100 43 5 6 78 99 100 90 100 100 100 100 100 100 100 100 100 100 100 100 100 100 100 100 100 100 100 100 100
80 100 97 86 19 9 84 57 100 100 100 94 59 68 63 20 98 84 91 5 75 100 99 100 64 90 100 100 100 100 100 99 100 100 83 56 90 100 95 100 100 100 100 100 100 100 100 100 100
89 80 100 98 98 5 95 100 96 100 85 67 80 100 5 44 71 48 100 81 100 100 100 100 100 26 92 100 100 100 100 100 99 72 70 100 96 96 52 77 48 77 95 100 96 97 93 100 100
88 100 87 79 98 65 94 89 98 100 100 84 48 86 46 50 96 84 100 100 100 100 99 100 100 100 100 100 100 100 100 88 69 83 88 100 100 100 100 96 99 82 99 94 100 65 74 100 100
100 100 60 99 84 67 84 69 100 100 100 100 96 96 100 39 100 100 100 100 52 94 100 100 100 100 100 99 100 100 100 100 100 100 100 100 100 100 100 100 99 97 86 100 100 99 97 100 82
100 100 100 100 90 72 80 100 100 100 100 100 33 64 16 97 100 65 100 100 100 96 12 54 100 100 100 100 100 100 100 100 100 100 100 72 94 100 100 100 100 100 100 100 100 98 100 100 100
100 100 100 100 100 100 52 100 100 100 100 100 100 100 91 78 100 100 100 100 100 100 62 94 100 100 100 100 100 100 100 100 100 100 100 100 95 100 100 100 100 97 95 96 100 100 100 100 100
100 100 100 100 100 100 100 100 100 100 100 100 100 100 100 100 100 100 100 100 100 100 100 100 100 100 100 100 100 100 100 100 100 100 100 100 100 100 100 100 100 100 100 99 100 100 100 100 100
93 18 98 94 100 100 100 100 100 100 100 100 100 100 100 98 100 100 100 100 100 100 100 100 100 100 100 100 100 100 100 100 100 100 100 100 100 100 100 100 100 100 100 100 100 100 100 100 100